When you browse on this site, cookies collect data to enhance your experience and personalize the content and advertising you see.
Visit our Privacy Policy to learn more. By continuing to use the site, you agree to this use of cookies and data.
  • In Lithuania
  • List of Countries
  • For 7 days
  • Water Temperature
  • Weather Map
  • Weather Widgets
  • user-avatar
    Login

    Hourly Weather Krugloe

    Today, 21 January, Tuesday

    Time Temperature Precipitation Wind Pressure Humidity
    00:00 -1°C° 0 mm 5 mps 746 mmHg 85%
    01:00 -1°C° 0 mm 5 mps 745 mmHg 87%
    02:00 -2°C° 0 mm 6 mps 744 mmHg 88%
    03:00 -2°C° 0.3 mm 6 mps 743 mmHg 89%
    04:00 -1°C° 0.3 mm 6 mps 742 mmHg 91%
    05:00 -1°C° 0.3 mm 6 mps 741 mmHg 92%
    06:00 +1°C° 0.2 mm 6 mps 740 mmHg 90%
    07:00 +1°C° 0.2 mm 6 mps 740 mmHg 89%
    08:00 +1°C° 0.2 mm 6 mps 739 mmHg 87%
    09:00 +1°C° 0.4 mm 5 mps 738 mmHg 88%
    10:00 +2°C° 0.4 mm 5 mps 738 mmHg 88%
    11:00 +2°C° 0.4 mm 5 mps 737 mmHg 89%
    12:00 +2°C° 0.2 mm 5 mps 737 mmHg 90%
    13:00 +2°C° 0.2 mm 5 mps 736 mmHg 91%
    14:00 +3°C° 0.2 mm 5 mps 735 mmHg 91%
    15:00 +3°C° 0.4 mm 5 mps 735 mmHg 92%
    16:00 +2°C° 0.4 mm 5 mps 734 mmHg 93%
    17:00 +2°C° 0.4 mm 5 mps 733 mmHg 93%
    18:00 +2°C° 0.2 mm 5 mps 733 mmHg 89%
    19:00 +1°C° 0.2 mm 6 mps 733 mmHg 84%
    20:00 0°C° 0.2 mm 7 mps 733 mmHg 80%
    21:00 -1°C° 0 mm 7 mps 734 mmHg 77%
    22:00 -2°C° 0 mm 7 mps 734 mmHg 75%
    23:00 -2°C° 0 mm 7 mps 734 mmHg 73%

    Tomorrow, 22 January, Wednesday

    Time Temperature Precipitation Wind Pressure Humidity
    00:00 -3°C° 0 mm 6 mps 734 mmHg 76%
    01:00 -3°C° 0 mm 6 mps 734 mmHg 78%
    02:00 -4°C° 0 mm 5 mps 734 mmHg 81%
    03:00 -4°C° 0 mm 5 mps 733 mmHg 83%
    04:00 -4°C° 0 mm 5 mps 733 mmHg 86%
    05:00 -4°C° 0 mm 5 mps 732 mmHg 88%
    06:00 -4°C° 0.1 mm 5 mps 731 mmHg 88%
    07:00 -4°C° 0.1 mm 5 mps 731 mmHg 88%
    08:00 -4°C° 0.1 mm 5 mps 730 mmHg 88%
    09:00 -4°C° 0.2 mm 5 mps 730 mmHg 85%
    10:00 -2°C° 0.2 mm 5 mps 730 mmHg 81%
    11:00 -3°C° 0.2 mm 6 mps 729 mmHg 78%
    12:00 -2°C° 0.1 mm 5 mps 730 mmHg 75%
    13:00 -2°C° 0.1 mm 5 mps 730 mmHg 73%
    14:00 -4°C° 0.1 mm 5 mps 730 mmHg 71%
    15:00 -4°C° 0 mm 5 mps 730 mmHg 73%
    16:00 -5°C° 0 mm 5 mps 730 mmHg 75%
    17:00 -5°C° 0 mm 5 mps 731 mmHg 78%
    18:00 -5°C° 0 mm 5 mps 731 mmHg 79%
    19:00 -6°C° 0 mm 5 mps 732 mmHg 81%
    20:00 -6°C° 0 mm 6 mps 732 mmHg 82%
    21:00 -6°C° 0.1 mm 6 mps 733 mmHg 82%
    22:00 -6°C° 0.1 mm 6 mps 733 mmHg 82%
    23:00 -6°C° 0.1 mm 6 mps 734 mmHg 81%

    Day after tomorrow, 23 January, Thursday

    Time Temperature Precipitation Wind Pressure Humidity
    00:00 -8°C° 0 mm 6 mps 734 mmHg 78%
    01:00 -8°C° 0 mm 6 mps 735 mmHg 75%
    02:00 -9°C° 0 mm 6 mps 736 mmHg 72%
    03:00 -9°C° 0 mm 6 mps 736 mmHg 72%
    04:00 -9°C° 0 mm 6 mps 737 mmHg 72%
    05:00 -10°C° 0 mm 6 mps 737 mmHg 73%
    06:00 -10°C° 0 mm 6 mps 738 mmHg 69%
    07:00 -10°C° 0 mm 5 mps 738 mmHg 66%
    08:00 -9°C° 0 mm 4 mps 739 mmHg 62%
    09:00 -8°C° 0 mm 5 mps 739 mmHg 62%
    10:00 -9°C° 0 mm 6 mps 739 mmHg 61%
    11:00 -8°C° 0 mm 6 mps 739 mmHg 60%
    12:00 -8°C° 0.1 mm 7 mps 740 mmHg 62%
    13:00 -8°C° 0.1 mm 7 mps 740 mmHg 64%
    14:00 -8°C° 0.1 mm 7 mps 740 mmHg 66%
    15:00 -8°C° 0 mm 6 mps 741 mmHg 65%
    16:00 -8°C° 0 mm 5 mps 741 mmHg 65%
    17:00 -9°C° 0 mm 4 mps 742 mmHg 64%
    18:00 -9°C° 0 mm 4 mps 742 mmHg 64%
    19:00 -9°C° 0 mm 4 mps 742 mmHg 65%
    20:00 -9°C° 0 mm 4 mps 743 mmHg 65%
    21:00 -9°C° 0 mm 4 mps 743 mmHg 65%
    22:00 -8°C° 0 mm 3 mps 743 mmHg 66%
    23:00 -8°C° 0 mm 3 mps 743 mmHg 66%

    24 January, Friday

    Time Temperature Precipitation Wind Pressure Humidity
    00:00 -8°C° 0 mm 3 mps 743 mmHg 70%
    01:00 -6°C° 0 mm 2 mps 742 mmHg 74%
    02:00 -6°C° 0 mm 2 mps 742 mmHg 78%
    03:00 -5°C° 0.1 mm 2 mps 742 mmHg 83%
    04:00 -6°C° 0.1 mm 3 mps 741 mmHg 88%
    05:00 -6°C° 0.1 mm 3 mps 740 mmHg 93%
    06:00 -5°C° 0.2 mm 4 mps 740 mmHg 92%
    07:00 -5°C° 0.2 mm 4 mps 740 mmHg 91%
    08:00 -4°C° 0.2 mm 4 mps 739 mmHg 90%
    09:00 -4°C° 0.1 mm 4 mps 739 mmHg 89%
    10:00 -3°C° 0.1 mm 4 mps 738 mmHg 89%
    11:00 -2°C° 0.1 mm 4 mps 738 mmHg 88%
    12:00 -2°C° 0 mm 4 mps 738 mmHg 88%
    13:00 -1°C° 0 mm 4 mps 738 mmHg 87%
    14:00 -1°C° 0 mm 4 mps 738 mmHg 87%
    15:00 -1°C° 0 mm 4 mps 738 mmHg 87%
    16:00 -1°C° 0 mm 4 mps 738 mmHg 88%
    17:00 0°C° 0 mm 3 mps 739 mmHg 89%
    18:00 0°C° 0 mm 3 mps 739 mmHg 90%
    19:00 0°C° 0 mm 3 mps 739 mmHg 91%
    20:00 0°C° 0 mm 3 mps 739 mmHg 92%
    21:00 0°C° 0 mm 3 mps 739 mmHg 93%
    22:00 0°C° 0 mm 3 mps 738 mmHg 94%
    23:00 +1°C° 0 mm 3 mps 738 mmHg 96%

    25 January, Saturday

    Time Temperature Precipitation Wind Pressure Humidity
    00:00 +1°C° 0.2 mm 3 mps 738 mmHg 95%
    01:00 0°C° 0.2 mm 4 mps 737 mmHg 95%
    02:00 +1°C° 0.2 mm 4 mps 737 mmHg 94%
    03:00 +1°C° 0.2 mm 4 mps 737 mmHg 95%
    04:00 +1°C° 0.2 mm 4 mps 736 mmHg 95%
    05:00 +1°C° 0.2 mm 4 mps 736 mmHg 95%
    06:00 +1°C° 0.1 mm 4 mps 737 mmHg 95%
    07:00 +1°C° 0.1 mm 4 mps 737 mmHg 95%
    08:00 +1°C° 0.1 mm 4 mps 737 mmHg 95%
    09:00 +2°C° 0 mm 3 mps 737 mmHg 94%
    10:00 +2°C° 0 mm 3 mps 738 mmHg 93%
    11:00 +2°C° 0 mm 3 mps 738 mmHg 93%
    12:00 +2°C° 0 mm 3 mps 739 mmHg 92%
    13:00 +2°C° 0 mm 3 mps 739 mmHg 91%
    14:00 +2°C° 0 mm 3 mps 739 mmHg 90%
    15:00 +1°C° 0 mm 3 mps 739 mmHg 91%
    16:00 +1°C° 0 mm 2 mps 740 mmHg 92%
    17:00 -1°C° 0 mm 2 mps 740 mmHg 94%
    18:00 -1°C° 0 mm 2 mps 740 mmHg 94%
    19:00 -2°C° 0 mm 2 mps 740 mmHg 95%
    20:00 -2°C° 0 mm 2 mps 740 mmHg 96%
    21:00 -2°C° 0 mm 2 mps 740 mmHg 96%
    22:00 -2°C° 0 mm 2 mps 740 mmHg 96%
    23:00 -2°C° 0 mm 2 mps 741 mmHg 96%

    26 January, Sunday

    Time Temperature Precipitation Wind Pressure Humidity
    00:00 -2°C° 0 mm 2 mps 741 mmHg 96%
    01:00 -2°C° 0 mm 2 mps 741 mmHg 96%
    02:00 -2°C° 0 mm 2 mps 741 mmHg 96%
    03:00 -2°C° 0 mm 2 mps 741 mmHg 96%
    04:00 -2°C° 0 mm 2 mps 741 mmHg 96%
    05:00 -1°C° 0 mm 1 mps 741 mmHg 96%
    06:00 -2°C° 0 mm 2 mps 741 mmHg 96%
    07:00 -2°C° 0 mm 2 mps 741 mmHg 96%
    08:00 -2°C° 0 mm 2 mps 741 mmHg 96%
    09:00 -1°C° 0 mm 2 mps 741 mmHg 94%
    10:00 -1°C° 0 mm 2 mps 742 mmHg 93%
    11:00 +1°C° 0 mm 2 mps 742 mmHg 91%
    12:00 +1°C° 0 mm 2 mps 742 mmHg 91%
    13:00 +1°C° 0 mm 2 mps 741 mmHg 91%
    14:00 +2°C° 0 mm 2 mps 741 mmHg 92%
    15:00 +1°C° 0 mm 2 mps 741 mmHg 94%
    16:00 +1°C° 0 mm 2 mps 741 mmHg 95%
    17:00 +1°C° 0 mm 2 mps 741 mmHg 97%
    18:00 +1°C° 0.1 mm 2 mps 741 mmHg 97%
    19:00 +1°C° 0.1 mm 2 mps 741 mmHg 97%
    20:00 0°C° 0.1 mm 3 mps 742 mmHg 96%
    21:00 +1°C° 0 mm 2 mps 742 mmHg 96%
    22:00 -1°C° 0 mm 2 mps 742 mmHg 96%
    23:00 -1°C° 0 mm 2 mps 742 mmHg 95%
    Show more